Regional Weather Roundup
Issued by NWS

Home | Current Version | Previous Version | Text Only | Print | Product List | Glossary On
Versions: 1 2 3 4 5 6 7 8 9 10 11 12 13 14 15 16 17 18 19 20 21 22 23 24 25 26 27 28 29 30 31 32 33 34 35 36 37 38 39 40 41 42 43 44 45 46 47 48 49 50
000
ASUS43 KOAX 220710
RWRNE

WEATHER ROUNDUP FOR NEBRASKA
NATIONAL WEATHER SERVICE OMAHA NE
200 AM CDT WED OCT 22 2014

NOTES: SATELLITE DATA IS BEING USED TO AUGMENT CLOUD COVER ABOVE
       12000 FEET.
       "FAIR" INDICATES FEW OR NO CLOUDS BELOW 12,000 FEET WITH NO
       SIGNIFICANT WEATHER AND/OR OBSTRUCTIONS TO VISIBILITY.

  * THESE STATIONS DO NOT REPORT WEATHER SUCH AS RAIN...SNOW OR FOG.

NEZ001>004-019>022-054>056-220800-
NEBRASKA PANHANDLE

CITY           SKY/WX    TMP DP  RH WIND       PRES   REMARKS
SCOTTSBLUFF    LGT RAIN  56  50  80 W16G28    29.96R
ALLIANCE       CLOUDY    47  42  83 CALM      29.89R
CHADRON        CLOUDY    60  49  66 W7        29.83R
KIMBALL        CLOUDY    55  47  73 NW18G24   29.95R
SIDNEY         CLOUDY    56  41  57 NW16      29.94R
$$

NEZ057>060-069>072-079>082-220800-
SOUTHWEST NEBRASKA

CITY           SKY/WX    TMP DP  RH WIND       PRES   REMARKS
NORTH PLATTE   CLEAR     63  51  65 S13       29.90F
IMPERIAL       PTCLDY    61  46  57 S10       29.91S
LEXINGTON      PTCLDY    60  55  83 SE8       29.95R
MCCOOK         CLEAR     63  51  65 S15G23    29.93S
OGALLALA       MOCLDY    61  49  64 S6        29.89R
$$

NEZ005>010-023>029-035>040-094-220800-
NORTH CENTRAL NEBRASKA

CITY           SKY/WX    TMP DP  RH WIND       PRES   REMARKS
VALENTINE      CLEAR     62  55  77 S15       29.85R
AINSWORTH      CLEAR     58  53  81 S16G23    29.88S
BROKEN BOW     PTCLDY    58  54  86 SE8       29.93S
O`NEILL        CLEAR     58  45  61 SE14      29.93S
ORD            CLEAR     55  49  80 SE6       29.94S
THEDFORD       CLEAR     62  54  74 S12       29.90S
$$

NEZ041-046>049-061>064-073>077-083>087-220800-
SOUTH CENTRAL NEBRASKA

CITY           SKY/WX    TMP DP  RH WIND       PRES   REMARKS
GRAND ISLAND   CLEAR     58  50  75 SE12      29.99R
AURORA         CLEAR     57  47  67 SE9       30.00R HAZE
HASTINGS       PTCLDY    59  52  77 S9        29.99R
HEBRON         CLEAR     57  49  76 SE8       30.01S
HOLDREGE       PTCLDY    58  54  86 S10       29.96S
KEARNEY *      CLEAR     59  54  82 SE10      29.97S
YORK           CLEAR     57  45  62 SE12      30.02R
$$

NEZ011>018-030>034-042>045-220800-
NORTHEAST NEBRASKA

CITY           SKY/WX    TMP DP  RH WIND       PRES   REMARKS
NORFOLK        CLEAR     58  41  53 SE20      30.00S
ALBION         CLEAR     56  42  59 SE9       29.99R
BLAIR          CLOUDY    59  45  60 SE12G18   30.07R
COLUMBUS *     CLEAR     59  39  47 SE12G17   30.03S
FREMONT        CLEAR     58  43  57 SE9       30.05S
TEKAMAH        CLOUDY    57  45  64 SE14      30.07R
WAYNE          CLEAR     53  41  63 SE8       30.03S
$$

NEZ050>053-065>068-078-088>093-220800-
SOUTHEAST NEBRASKA

CITY           SKY/WX    TMP DP  RH WIND       PRES   REMARKS
LINCOLN        CLEAR     60  42  51 SE16G23   30.05R
OMAHA EPPLEY   MOCLDY    57  44  62 SE17      30.08R
BEATRICE       CLEAR     58  45  60 SE9       30.04S
FALLS CITY     CLEAR     55  45  68 SE9       30.09R
NEBRASKA CITY  CLEAR     55  41  57 SE13      30.09R
PLATTSMOUTH    CLEAR     56  43  62 SE8       30.08R
$$

NEZ044-045-051>053-067-220800-
OMAHA AREA

CITY           SKY/WX    TMP DP  RH WIND       PRES   REMARKS
OMAHA EPPLEY   MOCLDY    57  44  62 SE17      30.08R
BLAIR          CLOUDY    59  45  60 SE12G18   30.07R
FREMONT        CLEAR     58  43  57 SE9       30.05S
MILLARD        CLOUDY    58  46  64 SE13      30.07S
OFFUTT AFB     MOCLDY    57  49  75 SE14      30.08R
PLATTSMOUTH    CLEAR     56  43  62 SE8       30.08R
WAHOO          FAIR      54  41  62 SE9       30.06R
$$



USA.gov is the U.S. government's official web portal to all federal, state and local government web resources and services.